This is the latest recevied weather packets stored in our database for station/object EB2EMZ-5. If no packets are shown the sender has not sent any weather packets the latest 1 day(s).
| Time | Temp. | Humidity | Pressure | Rain* | Wind** | Luminosity | Snow |
|---|---|---|---|---|---|---|---|
| 1777980320 | 23.89° C | 35% | 998.9 hPa | - | - | - | - |
| 1777980020 | 23.89° C | 35% | 999 hPa | - | - | - | - |
| 1777979720 | 24.44° C | 35% | 999.1 hPa | - | - | - | - |
| 1777979420 | 24.44° C | 35% | 999 hPa | - | - | - | - |
| 1777979120 | 24.44° C | 35% | 998.9 hPa | - | - | - | - |
| 1777978820 | 25° C | 35% | 999 hPa | - | - | - | - |
| 1777978520 | 25° C | 36% | 999 hPa | - | - | - | - |
| 1777978220 | 25° C | 35% | 999 hPa | - | - | - | - |
| 1777977920 | 25° C | 36% | 998.7 hPa | - | - | - | - |
| 1777977620 | 25° C | 35% | 998.6 hPa | - | - | - | - |
| 1777977320 | 24.44° C | 36% | 998.7 hPa | - | - | - | - |
| 1777977020 | 24.44° C | 36% | 998.6 hPa | - | - | - | - |
| 1777976720 | 24.44° C | 35% | 998.7 hPa | - | - | - | - |
| 1777976420 | 24.44° C | 36% | 998.7 hPa | - | - | - | - |
| 1777975819 | 24.44° C | 36% | 998.7 hPa | - | - | - | - |
| 1777975519 | 24.44° C | 36% | 998.6 hPa | - | - | - | - |
| 1777975219 | 24.44° C | 36% | 998.6 hPa | - | - | - | - |
| 1777974919 | 23.89° C | 36% | 998.6 hPa | - | - | - | - |
| 1777974619 | 23.89° C | 36% | 998.7 hPa | - | - | - | - |
| 1777974019 | 23.89° C | 35% | 998.7 hPa | - | - | - | - |
| 1777973719 | 23.33° C | 35% | 998.7 hPa | - | - | - | - |
| 1777973419 | 23.33° C | 36% | 998.8 hPa | - | - | - | - |
| 1777973119 | 23.33° C | 36% | 998.7 hPa | - | - | - | - |
| 1777972819 | 23.33° C | 35% | 998.8 hPa | - | - | - | - |
| 1777972519 | 23.33° C | 35% | 998.8 hPa | - | - | - | - |
* Rain since midnight (hover to see other rain measurements)
** Current wind speed in m/s (hover to see current wind gust speed)